Location: Aulus
(42.7909°N, 1.3399°E)
Time: 22:30:55
(UTC+00:00)

Cosmos-2242 - Pass Details

Date: 19 May 2025
Orbit: 569 x 594 km, 82.5° (Epoch: 12 June)

Event Time Altitude Azimuth Distance (km) Brightness Sun altitude
Exits shadow 21:27:35 12° 214° (SSW) 1,822 5.3 -19.1°
Maximum altitude 21:31:20 40° 283° (WNW) 880 4.2 -19.5°
Drops below altitude 10° 21:35:23 10° 354° (N) 1,935 6.5 -19.9°
Sets 21:37:42 0° 1° (N) 2,839 7.4 -20.1°
